星链-11607 (STARLINK-11607)

导读

STARLINK-11607是美国SpaceX公司星链(Starlink)星座中的一颗通信卫星,于2025年3月3日发射升空。作为星链低轨互联网星座的组成部分,它运行于近地轨道,主要为全球范围内提供高速卫星互联网接入服务,助力消除数字鸿沟,满足偏远地区、移动载体等场景的网络需求,该卫星目前处于在轨运行状态,是SpaceX大规模卫星组网计划的一环。

基本信息
目录编号:
63140
目录名称:
STARLINK-11607
国际标识:
2025-043J
轨道中心:
EARTH
卫星名称:
星链-11607
卫星全名:
星链-11607 (STARLINK-11607)
卫星状态:
在轨 (已飞行468 天)
发射日期:
2025-03-03 UTC
国别 :
美国 (US)
星等 :
--
轨道信息
数据来源 国际轨道数据
星历时间: 2026-06-14T20:25:28+0800
4小时前
查看轨道信息
半长轴: 6734.399km
偏心率: 0.0001239
轨道倾角: 42.999°
近地点辐角 236.311°
升交点赤经 26.801°
平近点角 123.764°
近地点: 355.427km
远地点: 357.097km
周期: 91.666分钟
每日圈数: 15.709217
详细信息
固有亮度:
5
最大亮度:
2.5
卫星平台:
Starlink V1.0
覆盖范围:
全球
运营商:
太空探索技术公司
运营商所在国:
美国
制造商(研发单位):
太空探索技术公司
制造商所在国:
美国
使用方式:
暂无
卫星简介
Starlink 计划是 SpaceX 推出的全球卫星互联网项目,通过发射低轨道卫星,为全球尤其是偏远地区提供高速、低延迟的互联网服务。自 2019 年起,Starlink 已部署数千颗卫星,旨在缩小全球数字鸿沟,推动互联网普及。该项目还为军事、航空等行业提供通信支持,带来广泛经济效益。
2D轨道图
3D轨道图
轨道高度分析图
轨道倾角分析图
轨道综合分析图
查看轨道综合分析图